• Join FlightAware (Why Join?)
  • Login
  • US Flag 
10:15PM EDT


 

Airport Tracker/Info


-or-


 

Live Flight TrackerFlight Track Log ✈ N588AC ✈ 05-May-2013 ✈ KBCB - KCRE

Flight Track Log - Related Links

Times and Time Zones

All times are in EDT time to prevent confusion due to time zone crossing. See the N588AC flight status page for this flight to view local times or setup timezone preferences in your user account.

Time Position Orientation Groundspeed Altitude Reporting Facility
EDT Latitude Longitude Course Direction KTS MPH feet Rate Location/Type
08:42AM 37.1561 -80.3714 161° South 220 253 5,200  Level Washington Center
08:43AM 37.1000 -80.3653 175° South 245 282 8,400 2,880 Climbing Washington Center
08:44AM 37.0361 -80.3431 164° South 240 276 11,100 2,580 Climbing Washington Center
08:45AM 36.9706 -80.3131 160° South 240 276 13,700 2,460 Climbing Washington Center
08:46AM 36.8986 -80.2825 161° South 257 296 16,100 2,580 Climbing Washington Center
08:46AM 36.8572 -80.2642 160° South 281 323 17,700 2,280 Climbing Atlanta Center
08:47AM 37.2060 -80.4071 161° South  Level FlightAware Approximate
08:47AM 36.7833 -80.2314 160° South 292 336 19,600  Level Atlanta Center
08:48AM 36.7031 -80.1964 161° South 287 330 22,000 1,680 Climbing Atlanta Center
08:49AM 36.6228 -80.1667 163° South 292 336 23,000 480 Climbing Atlanta Center
08:50AM 36.5339 -80.1269 160° South 320 368 23,000  Level Atlanta Center
08:51AM 36.4389 -80.0878 162° South 342 394 23,100  Climbing Atlanta Center
08:52AM 36.3522 -80.0508 161° South 357 411 23,000 -60 Descending Atlanta Center
08:53AM 36.2592 -80.0117 161° South 362 417 23,000  Level Atlanta Center
08:54AM 36.1619 -79.9703 161° South 367 422 23,000  Level Atlanta Center
08:55AM 36.0647 -79.9314 162° South 367 422 23,000  Level Atlanta Center
08:56AM 35.9611 -79.8906 162° South 367 422 23,000 60 Level Atlanta Center
08:57AM 35.9106 -79.8697 162° South 364 419 23,200 960 Climbing Washington Center
08:58AM 35.8178 -79.8364 164° South 364 419 24,700 900 Climbing Washington Center
08:59AM 35.7211 -79.7956 161° South 354 407 25,000 120 Climbing Washington Center
09:00AM 35.6247 -79.7547 161° South 360 414 25,000  Level Washington Center
09:01AM 35.5258 -79.7164 162° South 365 420 25,000  Level Washington Center
09:02AM 35.4231 -79.6728 161° South 377 434 25,000 -300 Level Washington Center
09:03AM 35.3242 -79.6294 160° South 377 434 24,400 -840 Descending Washington Center
09:04AM 35.2281 -79.5714 154° Southeast 377 434 23,400 -1,080 Descending Washington Center
09:05AM 35.1361 -79.5158 154° Southeast 377 434 22,300 -1,140 Descending Washington Center
09:06AM 35.0481 -79.4608 153° Southeast 367 422 21,200 -660 Descending Washington Center
09:07AM 34.9581 -79.4061 154° Southeast 367 422 21,000 -120 Descending Washington Center
09:08AM 34.8658 -79.3511 154° Southeast 367 422 21,000 -480 Level Washington Center
09:09AM 34.7758 -79.2964 153° Southeast 361 415 20,100 -1,380 Descending Washington Center
09:12AM 34.5722 -79.1733 154° Southeast 342 394 16,300 -1,680 Descending Jacksonville Center
09:13AM 34.4853 -79.1269 156° South 332 382 14,400 -1,800 Descending Jacksonville Center
09:14AM 34.4008 -79.0878 159° South 317 365 12,700 -1,680 Descending Jacksonville Center
09:15AM 34.3169 -79.0711 171° South 317 365 11,100 -1,680 Descending Jacksonville Center
09:16AM 34.2372 -79.0572 172° South 304 350 9,400 -1,740 Descending Jacksonville Center
09:17AM 34.1636 -79.0403 169° South 288 331 7,700 -1,680 Descending Jacksonville Center
09:18AM 34.0944 -79.0283 172° South 268 308 6,100 -1,680 Descending Jacksonville Center
09:19AM 34.0272 -79.0139 170° South 256 295 4,400 -1,560 Descending Jacksonville Center
09:20AM 33.9581 -79.0019 172° South 251 289 3,000 -1,200 Descending Jacksonville Center
09:21AM 33.8928 -78.9872 169° South 246 283 2,100 -600 Descending Jacksonville Center
09:22AM 33.8319 -78.9775 172° South 235 270 1,900 -240 Descending Jacksonville Center